Terminal Aerodrome Forecast
Issued by NWS Miami, FL

Current Version | Previous Version | Text Only | Print | Product List | Glossary On
Versions: 1 2 3 4 5 6 7 8 9 10 11 12 13 14 15 16 17 18 19 20 21 22 23 24 25 26 27 28 29
000
FTUS42 KMFL 201443 AAB
TAFFLL
TAF AMD
KFLL 201443Z 2015/2112 31009KT P6SM FEW025 BKN035
     FM201700 04010KT P6SM SCT035
     FM210100 01007KT P6SM FEW035=

USA.gov is the U.S. government's official web portal to all federal, state and local government web resources and services.